User: anonymous   Login
Location: Vancouver
(49.2500°N, 123.1330°W)
Time: 01:12:45
(UTC-08:00)
Language:

YAOGAN 6 - Orbit

View from above orbital plane
View from above orbital plane
View from above satellite
View from above satellite

Ground track
Ground track

The orbit data is extracted from the following two-line orbital elements,

1 34839U 09021A   15028.19536479  .00003289  00000-0  14545-3 0  4358
2 34839 097.2605 101.1780 0031972 158.4057 286.0742 15.21919808319903
Epoch (UTC): 28 January 2015 04:41:19
Eccentricity: 0.0031972
inclination: 97.2605°
perigee height: 478 km
apogee height: 522 km
right ascension of ascending node: 101.1780°
argument of perigee: 158.4057°
revolutions per day: 15.21919808
mean anomaly at epoch: 286.0742°
orbit number at epoch: 31990

The dashed part of the orbit path shows where the satellite is in the earth's shadow,  

DLR